Location: Hancock Field Station
(44.9202°N, 120.4259°W)
Time: 18:37:57
(UTC-08:00)

Nadezhda 4 Rocket - Visible Passes

Search period start: 16 December 2017 00:00
Search period end: 26 December 2017 00:00
Orbit: 949 x 993 km, 82.9° (Epoch: 16 December)

Date Brightness Start Highest point End Pass type
(mag) Time Alt. Az. Time Alt. Az. Time Alt. Az.
16 Dec 5.7 03:57:42 10° SE 04:02:46 28° E 04:07:50 10° NNE visible
16 Dec 4.1 05:41:52 10° SSW 05:47:45 47° WNW 05:53:39 10° N visible
17 Dec 4.8 04:20:44 10° SSE 04:26:34 48° E 04:32:24 10° NNE visible
17 Dec 4.7 06:06:55 10° SW 06:12:06 28° WNW 06:17:18 10° NNW visible
17 Dec 5.9 16:59:16 10° NNW 17:04:34 31° W 17:09:54 10° SW visible
18 Dec 6.7 03:03:54 10° E 03:06:17 12° ENE 03:08:39 10° NE visible
18 Dec 3.9 04:44:24 10° S 04:50:32 83° E 04:56:40 10° N visible
18 Dec 5.2 06:32:48 10° WSW 06:36:37 17° WNW 06:40:26 10° NNW visible
18 Dec 6.6 17:24:18 10° NW 17:28:15 18° W 17:32:14 10° WSW visible
19 Dec 6.0 03:25:18 10° SE 03:29:52 22° E 03:34:26 10° NE visible
19 Dec 3.9 05:08:37 10° SSW 05:14:38 59° WNW 05:20:41 10° N visible
20 Dec 5.2 03:48:02 10° SSE 03:54:18 37° ENE 03:59:12 10° NNE visible
20 Dec 4.4 05:39:06 34° WNW 05:39:06 34° WNW 05:44:27 10° N visible
21 Dec 5.1 04:20:21 33° NNE 04:20:21 33° NNE 04:23:34 10° NNE visible
21 Dec 5.2 06:05:01 19° NW 06:05:01 19° NW 06:07:51 10° NNW visible
21 Dec 6.4 16:50:45 10° NW 16:55:23 23° W 17:00:03 10° SW visible
22 Dec 6.7 03:00:49 10° NE 03:00:49 10° NE 03:00:54 10° NE visible
22 Dec 5.4 04:45:27 24° N 04:45:27 24° N 04:47:41 10° N visible
22 Dec 5.8 06:30:06 10° NW 06:30:06 10° NW 06:30:16 10° NW visible
22 Dec 6.7 17:16:29 10° NW 17:18:59 13° WNW 17:21:28 10° WSW visible
23 Dec 6.5 03:25:35 11° NNE 03:25:35 11° NNE 03:25:55 10° NNE visible
23 Dec 5.7 05:10:12 17° N 05:10:12 17° N 05:11:33 10° N visible
24 Dec 6.4 03:50:09 11° NNE 03:50:09 11° NNE 03:50:26 10° NNE visible
24 Dec 5.9 05:34:45 11° NNW 05:34:45 11° NNW 05:35:07 10° NNW visible
25 Dec 6.3 04:14:34 10° N 04:14:34 10° N 04:14:39 10° N visible
